Time,TemperatureF,DewpointF,PressureIn,WindDirection,WindDirectionDegrees,WindSpeedMPH,WindSpeedGustMPH,Humidity,HourlyPrecipIn,Conditions,Clouds,dailyrainin,SoftwareType,DateUTC
2013-02-28 00:02:00,39.8,30.0,30.29,SSE,153,4.0,7.0,68,0.00,,,0.00,weatherlink.com 1.10,2013-02-28 08:02:00,
2013-02-28 00:18:00,40.0,31.0,30.29,South,171,3.0,8.0,69,0.00,,,0.00,weatherlink.com 1.10,2013-02-28 08:18:00,
2013-02-28 00:33:00,40.2,31.0,30.29,SE,142,5.0,11.0,70,0.00,,,0.00,weatherlink.com 1.10,2013-02-28 08:33:00,
2013-02-28 00:48:00,40.5,31.0,30.30,South,171,3.0,9.0,69,0.00,,,0.00,weatherlink.com 1.10,2013-02-28 08:48:00,
2013-02-28 01:03:00,40.3,32.0,30.29,SSE,158,6.0,8.0,71,0.00,,,0.00,weatherlink.com 1.10,2013-02-28 09:03:00,
2013-02-28 01:18:00,40.3,32.0,30.29,ESE,121,4.0,8.0,71,0.00,,,0.00,weatherlink.com 1.10,2013-02-28 09:18:00,
2013-02-28 01:33:00,40.5,32.0,30.29,SE,139,5.0,8.0,72,0.00,,,0.00,weatherlink.com 1.10,2013-02-28 09:33:00,
2013-02-28 01:48:00,40.5,32.0,30.29,South,182,10.0,15.0,72,0.00,,,0.00,weatherlink.com 1.10,2013-02-28 09:48:00,
2013-02-28 02:03:00,40.1,32.0,30.29,SSW,197,11.0,17.0,74,0.00,,,0.00,weatherlink.com 1.10,2013-02-28 10:03:00,
2013-02-28 02:18:00,39.5,33.0,30.28,South,185,10.0,17.0,77,0.00,,,0.00,weatherlink.com 1.10,2013-02-28 10:18:00,
2013-02-28 02:33:00,39.1,33.0,30.29,South,182,4.0,15.0,78,0.00,,,0.00,weatherlink.com 1.10,2013-02-28 10:33:00,
2013-02-28 02:48:00,38.9,33.0,30.29,South,182,6.0,14.0,80,0.00,,,0.00,weatherlink.com 1.10,2013-02-28 10:48:00,
2013-02-28 03:03:00,38.9,33.0,30.28,South,173,8.0,11.0,80,0.00,,,0.00,weatherlink.com 1.10,2013-02-28 11:03:00,
2013-02-28 03:18:00,39.0,33.0,30.28,South,180,5.0,13.0,80,0.00,,,0.00,weatherlink.com 1.10,2013-02-28 11:18:00,
2013-02-28 03:33:00,39.2,34.0,30.27,SSW,200,12.0,13.0,80,0.00,,,0.00,weatherlink.com 1.10,2013-02-28 11:33:00,
2013-02-28 03:48:00,39.3,34.0,30.27,South,171,6.0,17.0,80,0.00,,,0.00,weatherlink.com 1.10,2013-02-28 11:48:00,
2013-02-28 04:03:00,39.6,34.0,30.26,SSW,194,5.0,15.0,80,0.00,,,0.00,weatherlink.com 1.10,2013-02-28 12:03:00,
2013-02-28 04:18:00,40.0,34.0,30.27,SSW,194,9.0,19.0,80,0.00,,,0.00,weatherlink.com 1.10,2013-02-28 12:18:00,
2013-02-28 04:33:00,40.3,34.0,30.27,SE,139,13.0,17.0,79,0.00,,,0.00,weatherlink.com 1.10,2013-02-28 12:33:00,
2013-02-28 04:48:00,40.3,34.0,30.27,SSE,165,8.0,17.0,79,0.00,,,0.00,weatherlink.com 1.10,2013-02-28 12:48:00,
2013-02-28 05:03:00,40.2,35.0,30.26,SE,142,6.0,20.0,80,0.00,,,0.00,weatherlink.com 1.10,2013-02-28 13:03:00,
2013-02-28 05:18:00,40.2,35.0,30.27,SSW,193,8.0,17.0,81,0.00,,,0.00,weatherlink.com 1.10,2013-02-28 13:18:00,
2013-02-28 05:33:00,40.4,35.0,30.27,SSE,155,8.0,19.0,80,0.00,,,0.00,weatherlink.com 1.10,2013-02-28 13:33:00,
2013-02-28 05:48:00,40.2,35.0,30.27,SSW,202,7.0,18.0,81,0.00,,,0.00,weatherlink.com 1.10,2013-02-28 13:48:00,
2013-02-28 06:03:00,40.1,35.0,30.27,South,183,12.0,21.0,81,0.00,,,0.00,weatherlink.com 1.10,2013-02-28 14:03:00,
2013-02-28 06:18:00,40.3,35.0,30.28,SSE,166,6.0,21.0,82,0.00,,,0.00,weatherlink.com 1.10,2013-02-28 14:18:00,
2013-02-28 06:33:00,40.3,35.0,30.29,SSE,166,10.0,17.0,82,0.00,,,0.00,weatherlink.com 1.10,2013-02-28 14:33:00,
2013-02-28 06:48:00,40.5,35.0,30.30,South,178,7.0,19.0,82,0.00,,,0.00,weatherlink.com 1.10,2013-02-28 14:48:00,
2013-02-28 07:03:00,40.7,35.0,30.29,South,169,5.0,17.0,81,0.00,,,0.00,weatherlink.com 1.10,2013-02-28 15:03:00,
2013-02-28 07:18:00,40.6,36.0,30.29,SE,141,7.0,14.0,82,0.00,,,0.00,weatherlink.com 1.10,2013-02-28 15:18:00,
2013-02-28 07:33:00,40.8,36.0,30.29,South,189,5.0,15.0,83,0.00,,,0.00,weatherlink.com 1.10,2013-02-28 15:33:00,
2013-02-28 07:48:00,41.0,36.0,30.29,South,186,6.0,18.0,83,0.00,,,0.00,weatherlink.com 1.10,2013-02-28 15:48:00,
2013-02-28 08:03:00,41.3,36.0,30.30,SSE,165,6.0,20.0,82,0.00,,,0.00,weatherlink.com 1.10,2013-02-28 16:03:00,
2013-02-28 08:18:00,41.3,36.0,30.30,South,178,14.0,17.0,82,0.00,,,0.00,weatherlink.com 1.10,2013-02-28 16:18:00,
2013-02-28 08:33:00,41.6,37.0,30.31,SSE,158,11.0,19.0,82,0.00,,,0.00,weatherlink.com 1.10,2013-02-28 16:33:00,
2013-02-28 08:48:00,41.7,36.0,30.31,SE,146,17.0,19.0,81,0.00,,,0.00,weatherlink.com 1.10,2013-02-28 16:48:00,
2013-02-28 09:03:00,41.9,37.0,30.31,SSE,159,14.0,16.0,81,0.00,,,0.00,weatherlink.com 1.10,2013-02-28 17:03:00,
2013-02-28 09:18:00,42.2,37.0,30.31,SSE,164,7.0,20.0,81,0.00,,,0.00,weatherlink.com 1.10,2013-02-28 17:18:00,
2013-02-28 09:33:00,42.6,37.0,30.32,SSE,168,7.0,23.0,80,0.00,,,0.00,weatherlink.com 1.10,2013-02-28 17:33:00,
2013-02-28 09:48:00,43.2,37.0,30.32,SSW,200,5.0,23.0,79,0.00,,,0.00,weatherlink.com 1.10,2013-02-28 17:48:00,
2013-02-28 10:04:00,43.5,37.0,30.33,South,178,9.0,23.0,78,0.00,,,0.00,weatherlink.com 1.10,2013-02-28 18:04:00,
2013-02-28 10:19:00,44.0,38.0,30.32,South,178,4.0,21.0,78,0.00,,,0.00,weatherlink.com 1.10,2013-02-28 18:19:00,
2013-02-28 10:34:00,44.3,38.0,30.32,South,177,13.0,20.0,77,0.00,,,0.00,weatherlink.com 1.10,2013-02-28 18:34:00,
2013-02-28 10:49:00,44.8,38.0,30.33,South,190,10.0,20.0,77,0.00,,,0.00,weatherlink.com 1.10,2013-02-28 18:49:00,
2013-02-28 11:04:00,45.3,39.0,30.33,South,172,5.0,17.0,77,0.00,,,0.00,weatherlink.com 1.10,2013-02-28 19:04:00,
2013-02-28 11:19:00,46.0,39.0,30.34,SSW,209,3.0,11.0,76,0.00,,,0.00,weatherlink.com 1.10,2013-02-28 19:19:00,
2013-02-28 11:34:00,47.0,39.0,30.35,South,171,7.0,17.0,75,0.00,,,0.00,weatherlink.com 1.10,2013-02-28 19:34:00,
2013-02-28 11:49:00,47.9,40.0,30.36,South,190,8.0,15.0,73,0.00,,,0.00,weatherlink.com 1.10,2013-02-28 19:49:00,
2013-02-28 12:04:00,48.6,40.0,30.36,SSW,192,7.0,15.0,72,0.00,,,0.00,weatherlink.com 1.10,2013-02-28 20:04:00,
2013-02-28 12:19:00,49.0,40.0,30.36,South,177,7.0,15.0,71,0.00,,,0.00,weatherlink.com 1.10,2013-02-28 20:19:00,
2013-02-28 12:34:00,49.8,40.0,30.35,South,187,9.0,15.0,68,0.00,,,0.00,weatherlink.com 1.10,2013-02-28 20:34:00,
2013-02-28 12:49:00,50.0,40.0,30.35,South,188,7.0,10.0,68,0.00,,,0.00,weatherlink.com 1.10,2013-02-28 20:49:00,
2013-02-28 13:04:00,50.0,40.0,30.35,South,186,4.0,9.0,68,0.00,,,0.00,weatherlink.com 1.10,2013-02-28 21:04:00,
2013-02-28 13:19:00,50.2,40.0,30.35,SE,131,5.0,11.0,68,0.00,,,0.00,weatherlink.com 1.10,2013-02-28 21:19:00,
2013-02-28 13:34:00,51.0,40.0,30.35,South,174,10.0,13.0,67,0.00,,,0.00,weatherlink.com 1.10,2013-02-28 21:34:00,
2013-02-28 13:49:00,51.8,40.0,30.35,SSW,203,7.0,12.0,64,0.00,,,0.00,weatherlink.com 1.10,2013-02-28 21:49:00,
2013-02-28 14:04:00,52.3,39.0,30.35,South,182,6.0,11.0,61,0.00,,,0.00,weatherlink.com 1.10,2013-02-28 22:04:00,
2013-02-28 14:19:00,52.6,38.0,30.35,SSE,156,5.0,8.0,59,0.00,,,0.00,weatherlink.com 1.10,2013-02-28 22:19:00,
2013-02-28 14:34:00,54.9,39.0,30.35,SW,228,4.0,9.0,55,0.00,,,0.00,weatherlink.com 1.10,2013-02-28 22:34:00,
2013-02-28 14:49:00,54.7,39.0,30.36,WSW,250,1.0,5.0,55,0.00,,,0.00,weatherlink.com 1.10,2013-02-28 22:49:00,
2013-02-28 15:04:00,54.8,38.0,30.36,South,184,4.0,8.0,53,0.00,,,0.00,weatherlink.com 1.10,2013-02-28 23:04:00,
2013-02-28 15:19:00,53.5,39.0,30.37,South,175,7.0,11.0,59,0.00,,,0.00,weatherlink.com 1.10,2013-02-28 23:19:00,
2013-02-28 15:34:00,53.0,39.0,30.37,South,181,5.0,12.0,60,0.00,,,0.00,weatherlink.com 1.10,2013-02-28 23:34:00,
2013-02-28 15:49:00,54.0,39.0,30.36,SSW,194,2.0,12.0,58,0.00,,,0.00,weatherlink.com 1.10,2013-02-28 23:49:00,
2013-02-28 16:04:00,52.8,40.0,30.36,SSW,196,1.0,10.0,62,0.00,,,0.00,weatherlink.com 1.10,2013-03-01 00:04:00,
2013-02-28 16:19:00,52.6,40.0,30.37,SW,218,3.0,6.0,62,0.00,,,0.00,weatherlink.com 1.10,2013-03-01 00:19:00,
2013-02-28 16:34:00,51.9,40.0,30.38,SW,221,2.0,6.0,64,0.00,,,0.00,weatherlink.com 1.10,2013-03-01 00:34:00,
2013-02-28 16:49:00,51.5,40.0,30.38,SE,140,3.0,7.0,64,0.00,,,0.00,weatherlink.com 1.10,2013-03-01 00:49:00,
2013-02-28 17:04:00,51.1,40.0,30.38,SSW,197,0.0,8.0,65,0.00,,,0.00,weatherlink.com 1.10,2013-03-01 01:04:00,
2013-02-28 17:19:00,50.6,40.0,30.38,SE,145,6.0,13.0,66,0.00,,,0.00,weatherlink.com 1.10,2013-03-01 01:19:00,
2013-02-28 17:34:00,50.1,39.0,30.38,South,185,8.0,10.0,67,0.00,,,0.00,weatherlink.com 1.10,2013-03-01 01:34:00,
2013-02-28 17:49:00,49.8,40.0,30.39,SSW,196,7.0,12.0,68,0.00,,,0.00,weatherlink.com 1.10,2013-03-01 01:49:00,
2013-02-28 18:04:00,49.6,39.0,30.40,SW,219,6.0,13.0,68,0.00,,,0.00,weatherlink.com 1.10,2013-03-01 02:04:00,
2013-02-28 18:19:00,49.2,39.0,30.39,SSW,213,6.0,13.0,69,0.00,,,0.00,weatherlink.com 1.10,2013-03-01 02:19:00,
2013-02-28 18:34:00,48.6,39.0,30.40,SSE,159,2.0,12.0,70,0.00,,,0.00,weatherlink.com 1.10,2013-03-01 02:34:00,
2013-02-28 18:49:00,48.1,39.0,30.41,SSE,161,6.0,14.0,72,0.00,,,0.00,weatherlink.com 1.10,2013-03-01 02:49:00,
2013-02-28 19:05:00,47.7,39.0,30.41,SSE,154,9.0,16.0,72,0.00,,,0.00,weatherlink.com 1.10,2013-03-01 03:05:00,
2013-02-28 19:20:00,47.2,39.0,30.41,South,191,4.0,11.0,73,0.00,,,0.00,weatherlink.com 1.10,2013-03-01 03:20:00,
2013-02-28 19:35:00,46.9,39.0,30.41,SSE,156,9.0,13.0,74,0.00,,,0.00,weatherlink.com 1.10,2013-03-01 03:35:00,
2013-02-28 19:50:00,46.5,39.0,30.42,SSW,209,8.0,13.0,75,0.00,,,0.00,weatherlink.com 1.10,2013-03-01 03:50:00,
2013-02-28 20:05:00,46.1,39.0,30.42,South,182,4.0,14.0,76,0.00,,,0.00,weatherlink.com 1.10,2013-03-01 04:05:00,
2013-02-28 20:20:00,45.8,39.0,30.41,South,188,7.0,16.0,76,0.00,,,0.00,weatherlink.com 1.10,2013-03-01 04:20:00,
2013-02-28 20:35:00,45.3,39.0,30.41,South,175,5.0,11.0,77,0.00,,,0.00,weatherlink.com 1.10,2013-03-01 04:35:00,
2013-02-28 20:50:00,44.8,38.0,30.41,South,189,5.0,14.0,78,0.00,,,0.00,weatherlink.com 1.10,2013-03-01 04:50:00,
2013-02-28 21:05:00,44.3,38.0,30.42,SSW,198,7.0,15.0,79,0.00,,,0.00,weatherlink.com 1.10,2013-03-01 05:05:00,
2013-02-28 21:20:00,43.7,38.0,30.43,South,190,6.0,9.0,80,0.00,,,0.00,weatherlink.com 1.10,2013-03-01 05:20:00,
2013-02-28 21:35:00,43.1,38.0,30.43,South,173,6.0,10.0,81,0.00,,,0.00,weatherlink.com 1.10,2013-03-01 05:35:00,
2013-02-28 21:50:00,42.8,38.0,30.44,South,184,3.0,9.0,82,0.00,,,0.00,weatherlink.com 1.10,2013-03-01 05:50:00,
2013-02-28 22:05:00,42.4,37.0,30.44,SW,227,5.0,9.0,82,0.00,,,0.00,weatherlink.com 1.10,2013-03-01 06:05:00,
2013-02-28 22:20:00,42.5,37.0,30.44,SW,220,4.0,9.0,81,0.00,,,0.00,weatherlink.com 1.10,2013-03-01 06:20:00,
2013-02-28 22:35:00,42.7,38.0,30.45,SSW,209,7.0,12.0,82,0.00,,,0.00,weatherlink.com 1.10,2013-03-01 06:35:00,
2013-02-28 22:50:00,42.6,38.0,30.45,SSW,204,4.0,9.0,82,0.00,,,0.00,weatherlink.com 1.10,2013-03-01 06:50:00,
2013-02-28 23:05:00,42.1,37.0,30.45,SSE,167,5.0,7.0,82,0.00,,,0.00,weatherlink.com 1.10,2013-03-01 07:05:00,
2013-02-28 23:20:00,41.7,37.0,30.45,SE,144,8.0,8.0,82,0.00,,,0.00,weatherlink.com 1.10,2013-03-01 07:20:00,
2013-02-28 23:35:00,41.6,37.0,30.45,SE,145,3.0,10.0,83,0.00,,,0.00,weatherlink.com 1.10,2013-03-01 07:35:00,
2013-02-28 23:50:00,41.3,36.0,30.46,SSW,211,3.0,7.0,82,0.00,,,0.00,weatherlink.com 1.10,2013-03-01 07:50:00,